Theta_e
304 304 304 304 304 305 306 305 307 307 308 303 301 303 295 293 288 297 299 307 304 294 286 288 286 285 287 290 288 291 291 288 290 292 293 290 292 293 291 287 288 291 292 292 291 292 289 292 289 291 293 294 295 300 301 303 301 301 297 299 299 296 290 287 288 290 292 293 296 296 297 299 296 297 299 297 292 293 292 291 292 288 289 287 287 284 289
302 303 303 303 303 304 305 306 307 307 307 304 303 298 293 291 290 295 301 307 302 292 282 281 285 285 284 287 286 288 288 288 287 290 292 291 291 292 290 290 293 289 292 293 290 293 285 292 292 290 293 293 292 297 300 303 299 299 297 294 299 291 291 291 285 285 286 288 290 291 293 294 292 293 297 298 298 296 295 291 288 287 287 288 286 281 288
303 302 302 302 303 303 304 305 307 307 305 306 303 293 293 292 293 293 295 300 300 287 289 287 286 284 284 284 283 285 287 291 293 292 290 292 292 292 290 293 293 290 292 290 293 293 291 287 293 294 292 292 291 297 300 302 300 302 303 299 302 293 292 290 283 280 279 278 279 281 285 287 292 295 297 297 297 295 293 287 288 285 288 290 287 287 295
302 303 302 302 302 302 303 304 304 304 304 303 302 296 293 289 284 286 288 292 295 290 289 292 288 285 285 284 285 287 285 289 290 293 286 290 291 292 289 290 294 291 291 288 287 288 289 290 288 290 290 292 291 295 300 301 301 299 299 299 300 290 294 294 290 287 285 288 289 292 294 291 286 288 292 295 297 299 296 293 289 286 289 289 291 293 294
302 301 302 302 302 302 302 303 303 304 303 301 298 293 291 294 287 285 282 286 289 288 290 287 288 286 288 283 285 284 286 287 288 292 287 290 290 290 290 289 288 288 290 288 288 287 286 290 291 290 291 290 290 290 297 300 300 296 297 299 296 290 289 291 292 292 293 295 288 292 295 290 291 289 289 293 293 294 293 289 286 293 289 285 293 296 293
303 302 301 302 301 301 302 302 303 303 303 302 301 290 290 286 286 287 288 284 283 284 285 288 287 289 289 286 288 286 285 286 284 289 289 290 291 289 287 289 293 291 290 290 286 286 284 286 287 292 291 290 290 290 293 297 296 297 299 300 296 291 287 291 291 290 293 293 293 291 292 291 291 291 290 290 292 291 288 288 292 292 287 287 291 291 291
302 301 301 301 301 301 301 302 302 303 302 301 299 288 288 290 288 287 288 285 286 289 289 290 288 286 288 286 287 286 286 285 288 288 286 289 287 290 285 288 292 293 293 291 287 287 283 283 285 288 288 290 291 289 291 295 296 298 297 298 293 291 289 292 292 290 291 292 293 293 290 292 292 291 292 293 292 292 293 292 293 292 287 290 291 290 290
301 301 301 300 301 301 300 300 301 301 301 300 293 289 287 287 288 286 287 287 287 289 289 289 288 285 288 285 285 287 287 286 286 287 288 285 288 291 289 288 291 293 293 292 288 289 290 289 285 290 288 288 293 291 293 292 292 297 295 296 291 293 288 292 292 288 288 292 293 292 291 291 289 293 294 294 293 293 294 294 294 293 291 291 289 288 288
300 300 301 301 301 301 300 300 300 300 301 293 291 287 289 289 289 291 288 285 285 289 289 288 287 286 286 285 286 286 287 286 289 288 291 291 288 289 289 290 290 292 292 292 291 293 292 293 292 293 293 288 291 292 288 295 289 292 292 294 292 292 288 293 289 286 285 291 290 289 291 290 290 290 291 290 291 289 291 291 294 293 291 292 291 287 288
300 299 299 300 300 300 300 299 299 298 298 292 290 286 291 290 291 288 288 284 288 286 288 289 288 284 287 288 287 287 287 290 291 285 287 287 291 292 293 292 290 288 290 290 293 296 296 295 296 296 297 299 295 293 293 295 292 290 290 292 291 289 290 287 287 284 284 289 291 289 287 285 283 285 290 292 293 294 294 295 296 295 295 291 288 289 295
299 300 300 300 300 300 300 299 298 297 294 288 287 286 286 288 289 290 290 285 284 286 286 286 286 288 289 289 287 290 290 290 291 286 285 290 291 293 294 291 289 288 288 293 296 295 292 294 294 295 296 295 294 292 294 298 297 296 292 289 289 290 289 288 290 283 284 287 287 288 284 277 278 293 295 294 292 293 292 292 294 296 296 294 297 297 300
298 299 299 299 300 300 300 300 299 297 294 291 291 286 288 288 287 288 288 285 283 286 286 285 287 286 288 289 289 287 288 288 289 293 288 288 290 292 293 291 291 285 291 295 294 294 295 296 294 294 292 291 292 294 297 296 296 298 298 293 289 288 288 288 289 285 284 285 285 282 277 278 295 296 297 296 295 295 294 294 296 297 298 298 297 298 299
297 297 298 298 299 299 299 299 299 298 296 293 291 285 288 289 288 288 288 286 282 284 284 285 283 286 289 290 289 288 289 290 289 288 290 288 286 290 293 292 291 293 295 294 296 295 289 284 286 287 286 289 289 290 290 292 293 294 297 297 292 288 288 288 286 287 287 284 282 275 277 289 293 293 293 297 297 296 294 292 294 296 297 298 297 298 300
297 297 297 297 298 299 299 299 299 298 297 294 289 288 288 288 288 288 288 286 282 284 285 284 285 286 287 288 288 286 288 286 287 290 286 289 289 290 289 289 294 294 296 297 293 290 285 285 283 284 282 284 284 285 285 287 287 288 291 293 296 293 289 289 284 288 281 282 282 280 288 286 288 289 290 293 291 292 290 286 290 295 296 296 296 298 299
296 296 297 297 298 298 298 299 299 299 298 295 292 290 288 288 287 288 287 289 284 284 285 284 285 286 287 286 287 286 286 285 286 285 285 285 286 285 287 287 290 295 296 293 287 286 283 282 279 278 279 280 275 279 283 282 285 286 287 289 291 294 288 288 285 284 287 282 280 281 280 276 283 291 295 297 298 298 297 293 289 297 298 298 297 296 297
295 295 296 297 297 297 298 298 298 298 298 296 291 290 289 288 288 287 288 287 286 281 282 280 279 284 286 285 288 287 286 286 286 284 284 283 283 286 286 288 290 292 291 289 287 286 284 282 279 280 276 279 281 279 275 281 282 284 287 288 289 291 293 289 286 284 284 282 278 278 276 280 288 290 294 295 296 298 299 291 285 295 297 298 298 297 298
294 295 295 296 296 297 297 297 298 298 298 296 290 289 287 289 287 286 287 285 284 280 280 281 282 282 285 284 286 286 288 286 286 283 281 282 283 284 285 288 289 289 287 288 285 284 281 278 280 279 277 277 278 278 280 280 280 280 284 286 286 285 287 287 284 282 283 282 279 277 281 281 288 292 292 292 295 299 294 281 282 295 298 299 299 298 298
294 294 295 296 296 296 297 297 297 298 297 297 292 288 287 289 289 287 288 285 281 279 282 282 281 284 286 285 286 286 286 285 284 286 285 283 282 282 284 286 285 289 289 286 285 284 281 278 279 278 279 279 281 284 275 281 280 280 280 282 282 283 284 286 281 282 283 282 280 282 283 290 292 291 292 292 298 296 283 277 287 296 299 299 300 299 300
293 294 294 295 295 296 296 296 297 297 297 296 292 291 288 288 288 289 288 285 283 279 282 284 284 282 282 280 284 285 286 288 288 284 281 281 282 284 286 286 289 285 287 284 285 283 281 278 278 280 279 276 277 279 283 279 280 285 284 281 281 282 283 284 285 282 281 282 280 280 284 290 293 293 293 294 293 282 281 291 296 297 295 295 298 299 299
293 293 293 294 295 295 295 296 296 296 296 296 292 287 287 289 288 287 286 282 282 280 282 282 283 282 283 283 284 284 285 285 286 286 283 283 285 287 286 281 285 284 283 285 281 280 282 279 279 277 278 279 278 282 278 279 283 282 283 286 283 282 281 279 280 283 280 281 279 278 275 287 293 292 290 293 288 289 295 295 293 296 296 296 297 299 296
292 292 293 293 294 294 295 295 296 296 296 295 292 287 286 288 288 288 288 287 284 280 280 285 285 284 284 282 282 282 283 285 285 286 286 284 286 287 279 280 284 285 283 284 281 279 281 280 276 277 281 282 281 280 278 277 277 284 285 286 285 289 282 282 283 286 278 279 276 278 286 290 295 295 289 292 295 295 295 297 293 292 295 296 296 294 296
292 292 292 293 293 293 294 295 295 295 295 294 292 287 285 287 288 288 288 289 284 280 282 285 285 285 286 286 286 285 284 283 283 284 283 283 283 284 283 284 286 285 284 282 280 277 277 276 276 276 277 277 279 279 277 277 274 279 277 282 279 288 285 288 283 287 284 282 285 290 289 293 295 297 297 298 295 293 294 294 294 294 293 293 295 294 294
291 292 292 292 292 293 293 293 294 295 294 294 290 287 284 285 285 288 288 284 285 286 286 284 285 286 287 287 288 288 287 287 286 286 283 285 283 282 282 285 284 283 280 282 286 285 284 280 279 283 278 279 280 275 273 277 278 279 279 285 284 285 289 285 287 287 290 291 289 293 288 289 293 292 290 291 290 290 293 294 293 294 294 294 294 294 295
291 291 291 292 292 292 292 293 293 294 294 293 290 286 285 286 285 285 286 285 282 279 282 283 282 279 280 281 285 287 287 286 287 286 287 286 284 281 282 282 284 281 281 282 283 283 279 279 279 278 281 281 281 279 277 274 275 280 281 281 283 284 285 285 285 287 285 281 290 288 289 290 289 292 290 289 291 292 291 291 294 293 293 292 294 295 294
291 291 291 291 291 292 292 292 293 293 293 292 289 288 288 286 285 283 282 279 279 278 274 277 279 282 284 285 285 285 286 287 288 287 286 285 288 284 282 283 284 284 283 282 282 282 281 279 278 278 279 281 283 280 284 281 277 282 280 283 282 281 287 286 286 285 284 285 289 289 290 291 291 292 290 289 289 290 290 293 292 292 291 292 292 290 290
291 291 291 291 291 291 292 292 292 293 293 292 288 284 283 282 284 286 285 282 278 278 276 273 278 284 283 283 282 283 286 286 286 286 286 286 287 289 284 283 283 284 283 283 284 282 278 275 276 275 279 279 284 279 277 281 281 283 283 284 286 285 287 281 286 284 287 289 286 285 287 287 288 288 289 291 292 291 289 288 288 288 288 287 288 290 292
291 291 291 291 291 291 291 291 292 292 292 291 285 285 285 285 285 284 281 280 278 276 277 275 276 279 281 280 283 284 285 285 286 285 285 285 285 286 285 284 282 282 282 281 281 278 276 276 278 277 279 278 281 278 279 278 280 278 278 282 283 285 282 286 285 282 282 283 286 286 283 284 286 288 290 289 288 288 288 286 285 286 287 287 288 288 288
291 291 291 291 291 291 291 291 291 292 292 290 285 284 285 285 285 287 284 281 279 275 275 274 276 279 282 279 282 283 284 285 285 285 284 284 284 284 284 283 283 282 281 281 277 277 276 277 275 278 278 279 280 277 280 280 279 277 276 281 284 284 286 285 283 283 283 285 284 288 288 285 286 286 286 287 287 288 287 288 287 287 287 287 287 286 287
291 291 291 291 291 291 290 290 291 292 291 288 282 280 279 282 286 289 288 283 280 276 277 278 279 277 276 277 282 281 284 284 284 284 283 283 283 283 283 282 281 281 280 280 279 277 276 276 279 276 276 281 279 274 278 275 275 277 281 284 284 285 287 287 287 285 284 285 286 286 287 285 285 286 286 286 288 287 286 287 287 287 286 286 286 286 285
291 291 291 291 291 291 290 290 290 291 290 282 277 272 270 277 285 287 290 287 280 279 276 272 270 274 276 278 278 279 281 284 283 283 283 283 282 282 281 282 282 282 281 279 279 274 278 277 277 277 278 281 278 275 274 274 273 278 283 284 285 285 285 287 286 286 285 286 284 283 283 284 285 284 284 286 286 287 286 285 284 284 284 285 284 285 285
291 291 291 291 291 290 291 290 290 290 289 276 272 267 266 266 278 288 290 288 284 279 272 272 272 275 274 278 278 278 279 282 282 281 281 281 281 281 281 282 282 282 278 278 277 278 278 273 277 277 280 280 279 273 273 271 271 275 280 283 284 284 284 284 285 286 286 284 283 282 282 282 284 283 283 284 284 284 284 283 283 283 283 284 284 284 285
290 291 291 290 290 290 291 290 290 290 283 279 275 274 272 278 284 289 289 286 282 279 275 271 269 269 271 276 276 276 278 279 280 281 280 283 279 282 280 282 280 283 282 276 277 276 274 278 276 277 277 281 279 269 270 271 273 277 281 281 284 284 285 284 283 283 282 283 282 281 282 282 283 282 282 282 282 282 281 282 283 283 282 283 284 283 283
290 290 290 289 289 289 290 290 290 289 286 287 291 290 289 289 290 290 287 283 281 274 271 269 266 269 268 270 273 275 277 279 278 279 277 281 278 281 276 281 280 279 286 279 273 273 276 275 277 276 277 281 275 274 272 273 276 280 278 280 280 282 281 281 280 281 282 282 283 280 279 280 280 280 281 281 282 281 282 282 282 282 282 282 282 282 283
289 289 289 288 288 290 290 290 290 290 286 278 276 279 283 289 290 290 286 276 274 275 275 272 267 266 268 272 270 274 279 277 274 277 273 278 278 278 276 278 279 277 278 277 277 274 274 276 274 274 278 273 276 272 269 274 279 278 278 280 279 279 279 280 280 281 281 280 281 281 280 279 279 280 280 280 280 281 281 282 281 280 280 280 281 282 282
289 289 288 288 288 290 289 287 280 279 272 271 271 278 283 289 289 287 283 276 270 269 269 269 271 265 266 266 264 271 275 276 273 275 274 275 278 275 277 274 278 274 275 282 275 274 274 273 279 273 271 276 273 270 273 276 278 277 278 278 278 279 278 277 278 278 278 277 277 278 278 278 278 278 279 280 280 280 280 280 281 280 280 280 281 281 282
288 288 287 287 287 288 284 283 281 278 274 273 276 285 288 287 285 281 278 273 275 267 265 267 270 266 266 262 264 270 280 275 273 272 273 275 275 276 273 275 272 275 277 273 273 275 273 279 275 269 276 271 270 274 276 278 276 277 278 277 278 278 278 278 277 274 274 274 274 275 275 277 277 278 279 279 279 280 280 279 280 279 279 279 279 279 279
287 286 286 283 279 279 275 276 281 278 277 282 285 289 288 286 278 280 279 278 277 275 271 269 268 268 266 267 266 267 274 270 274 269 269 271 271 274 273 272 269 276 271 272 273 271 275 280 272 271 271 269 273 278 279 279 277 276 276 276 276 275 274 271 270 272 273 274 274 275 276 276 276 278 277 278 277 276 275 275 275 274 273 273 274 274 275
286 283 275 274 273 270 271 275 277 282 287 287 287 279 274 275 269 271 272 271 274 277 268 268 267 266 263 266 265 272 274 268 273 269 269 269 271 268 274 272 271 275 265 271 272 278 275 273 271 271 272 276 278 278 278 276 274 274 275 271 269 269 268 268 269 272 271 273 274 275 272 272 273 274 274 272 272 271 271 272 272 272 272 272 273 273 273
280 275 273 271 270 269 272 276 284 287 286 284 282 274 272 269 265 265 267 269 271 270 272 271 269 267 266 266 269 275 273 271 269 268 268 275 272 268 273 267 274 273 268 271 271 279 268 270 272 271 270 274 274 277 276 269 266 265 265 265 265 265 266 266 267 270 271 272 270 266 268 269 269 269 269 268 268 269 269 269 269 270 270 270 270 270 269
274 272 269 267 268 273 281 283 285 282 282 277 276 274 268 271 269 264 266 262 264 269 272 268 271 268 269 270 269 269 277 269 266 267 269 271 278 269 273 269 272 270 263 267 269 275 269 267 270 270 268 273 274 271 266 267 264 262 262 262 262 263 263 263 263 263 263 263 263 263 264 264 264 264 264 263 263 263 264 264 265 266 265 265 266 266 266
272 272 270 269 273 274 277 280 278 275 273 271 271 271 266 262 266 266 268 265 262 263 268 269 268 267 268 264 268 268 273 273 267 266 265 264 275 272 265 264 274 263 264 266 271 267 268 268 269 268 269 274 273 263 260 262 261 259 259 260 260 260 261 261 261 260 260 259 260 261 261 261 261 261 262 262 261 261 261 261 262 262 263 263 263 264 266
276 276 277 279 280 277 275 275 273 271 268 269 265 264 267 266 265 264 267 263 264 264 264 267 267 267 266 270 268 270 269 267 271 271 268 263 273 267 264 262 263 261 261 269 269 263 267 264 266 268 271 273 261 257 260 259 258 258 258 258 259 259 259 258 259 258 259 258 258 258 259 259 259 259 259 259 259 259 260 260 260 261 261 262 264 264 265
285 282 280 273 274 272 268 268 268 269 266 266 263 260 262 262 263 262 262 267 262 262 265 266 268 273 270 266 266 267 270 277 273 269 266 263 273 268 263 261 260 258 264 265 262 263 263 262 265 269 273 265 257 258 257 258 258 258 258 259 258 259 259 258 257 257 258 258 257 258 258 258 257 258 259 259 258 258 259 260 260 260 261 262 262 263 264
278 276 271 266 267 264 265 262 269 267 264 262 260 257 258 258 261 262 260 264 264 264 264 267 266 267 266 265 268 271 270 272 276 268 266 269 268 264 266 261 262 266 266 260 261 261 264 265 268 270 267 258 256 257 258 257 257 257 257 258 258 257 258 258 258 257 257 258 257 257 257 257 257 258 258 258 258 257 258 258 259 260 261 261 261 262 263
272 267 262 260 260 260 262 260 263 262 258 260 265 259 256 257 258 259 264 263 265 265 261 261 264 264 264 264 264 267 273 268 275 269 267 270 264 267 264 262 267 267 265 262 262 261 263 264 268 264 263 262 258 256 255 256 255 256 256 256 255 255 256 256 256 256 256 256 256 256 256 256 256 256 257 257 257 258 257 257 258 259 259 260 261 261 262
265 264 257 258 258 256 255 254 255 259 259 258 262 260 259 262 257 257 259 256 260 260 262 261 258 261 263 263 265 265 262 264 266 267 269 266 264 263 268 267 265 261 263 264 262 261 263 268 268 267 265 258 256 254 254 254 254 253 255 253 254 255 254 255 253 255 255 255 256 256 255 256 256 256 256 257 257 257 257 258 259 259 259 260 260 260 261
263 259 254 252 254 252 253 256 257 260 257 255 257 260 260 259 257 259 259 258 260 259 260 258 262 266 265 264 265 264 263 263 262 265 266 261 262 266 267 263 262 262 260 260 261 262 264 267 269 265 256 252 250 248 247 249 249 250 251 251 251 251 251 251 252 252 253 254 254 254 254 254 254 255 255 255 255 256 257 258 258 259 259 259 260 261 260
262 261 259 258 256 255 256 258 254 256 255 256 256 253 254 254 257 258 257 256 258 259 261 263 263 264 264 267 267 265 264 264 263 264 266 265 267 260 261 261 261 264 262 259 262 262 266 267 262 260 256 251 251 251 250 249 249 249 249 249 250 251 251 251 251 251 251 251 251 252 253 253 253 254 254 254 255 256 256 257 258 258 259 260 260 260 259
259 257 260 256 251 251 254 256 257 260 256 253 256 257 257 259 259 258 256 255 257 259 258 261 261 264 264 265 264 264 263 266 262 263 266 263 261 260 261 259 260 259 260 264 267 268 267 262 257 253 249 249 249 249 251 249 250 249 250 250 250 250 249 249 250 251 251 251 251 252 252 254 254 254 254 254 254 255 256 256 257 257 259 259 259 258 258
260 258 255 254 255 256 252 254 256 258 256 254 256 257 257 258 258 257 256 257 255 258 261 266 268 265 264 264 260 262 261 264 262 265 264 261 261 261 259 257 259 258 262 261 260 260 258 256 254 253 252 252 253 252 252 252 253 253 250 249 248 247 248 249 249 250 250 251 252 252 253 254 254 254 254 254 255 255 255 255 256 257 257 256 257 257 257
257 257 256 256 263 261 258 256 258 253 251 256 256 257 255 256 257 258 256 258 257 259 260 262 264 261 261 261 259 257 259 262 260 260 261 260 261 258 258 259 261 264 267 262 261 261 259 257 257 258 253 251 251 250 249 249 249 249 248 247 247 247 248 248 248 250 250 251 252 254 254 253 254 254 254 254 254 254 255 256 257 256 257 258 258 258 257
255 255 259 254 249 252 254 254 254 256 259 255 253 254 258 255 255 254 256 260 260 262 261 261 262 261 258 257 258 259 263 263 261 258 256 259 258 258 256 262 267 266 264 262 262 261 258 256 255 255 254 254 253 249 246 246 247 247 247 247 247 247 248 249 249 249 250 251 252 252 253 254 253 253 255 255 256 256 255 255 256 257 257 258 259 259 258
Wind_Speed
27 29 29 28 28 27 22 1 9 17 23 12 9 7 7 9 2 4 4 19 21 16 12 6 6 6 2 7 3 3 7 6 8 13 6 8 2 4 4 5 8 6 6 11 7 9 4 12 12 12 12 11 11 7 18 17 20 14 9 12 4 3 4 7 2 3 3 1 3 5 4 5 8 7 4 8 11 13 12 11 2 7 5 8 4 8 6
27 27 28 29 27 28 26 9 11 20 17 6 8 8 5 3 3 5 5 13 16 13 11 12 10 3 2 1 5 3 3 6 8 9 13 8 7 10 7 3 5 7 2 11 16 15 6 8 5 5 4 5 4 8 16 23 14 16 13 14 13 9 6 9 6 3 4 1 2 1 2 1 3 7 12 12 10 13 3 4 0 4 8 8 6 11 4
27 27 27 28 28 27 24 18 11 14 4 4 3 7 4 6 3 5 2 2 13 14 9 11 9 6 8 6 9 6 3 4 9 15 14 3 4 9 9 6 9 4 5 9 9 12 6 5 9 3 10 4 4 4 16 21 15 9 14 14 13 8 7 13 14 12 10 9 9 12 11 14 8 9 14 15 18 18 11 13 6 11 10 17 9 8 13
28 26 26 28 28 27 24 19 13 10 4 5 5 1 7 6 6 1 2 2 10 2 3 2 7 8 8 8 7 8 6 2 6 7 4 1 5 4 4 2 7 7 11 8 8 12 3 6 7 10 8 4 2 4 16 17 13 11 13 13 13 2 5 10 10 13 12 9 2 5 11 8 5 6 14 19 17 17 15 9 10 12 5 12 12 13 12
28 27 27 27 27 28 25 22 17 12 8 2 5 4 1 1 3 5 5 1 6 8 3 3 7 8 9 7 5 9 10 9 1 5 5 4 5 4 3 7 12 6 15 12 11 5 3 2 8 13 12 2 3 3 7 14 11 12 10 14 7 2 7 11 10 15 9 8 4 6 13 12 12 10 10 6 10 12 12 12 7 4 9 14 8 12 12
28 28 27 26 27 28 27 23 17 15 12 10 2 3 2 4 1 1 1 1 9 7 7 7 5 4 9 3 5 14 12 7 7 1 4 4 2 8 1 6 13 20 20 16 12 13 5 3 10 11 4 5 4 5 2 8 9 12 9 14 9 8 8 12 14 14 15 14 11 10 7 9 9 11 11 14 11 9 11 9 9 5 9 7 6 3 8
29 28 28 27 27 28 28 26 22 17 13 8 2 3 1 2 2 2 1 0 2 14 17 20 11 9 7 3 9 9 15 15 10 7 5 4 3 3 9 15 14 16 14 14 9 14 8 7 3 11 11 15 12 9 3 7 3 12 9 10 1 4 8 11 12 15 16 17 16 7 10 9 11 15 16 15 18 19 18 18 19 14 8 7 8 11 16
28 27 28 27 27 27 27 27 24 22 13 4 5 4 1 2 3 3 2 1 2 5 9 12 13 9 9 7 9 10 14 16 8 2 11 10 9 3 10 14 17 17 18 18 17 20 21 23 18 16 17 11 10 11 8 9 6 9 13 10 2 6 9 17 11 11 14 13 10 8 11 11 12 10 9 11 12 15 16 14 13 14 16 15 16 13 16
28 27 27 28 27 26 26 26 26 25 13 5 4 2 2 1 2 0 6 3 1 5 8 11 12 8 7 6 8 8 16 14 13 7 4 16 16 13 18 18 15 13 14 15 14 20 22 16 16 15 18 14 13 10 5 7 12 11 8 8 1 5 0 4 5 8 10 9 11 8 9 11 12 10 6 5 10 12 10 14 15 16 17 15 12 10 12
28 28 28 28 28 27 25 25 24 23 14 4 2 2 2 2 1 2 0 4 2 5 7 8 10 11 9 8 11 12 18 15 14 4 1 3 2 10 15 16 14 9 14 16 16 16 10 5 8 11 4 4 6 3 10 12 13 6 6 2 6 6 5 5 8 12 12 8 11 9 5 1 9 13 10 11 12 12 12 13 12 15 12 11 12 16 17
27 27 27 27 27 27 26 25 23 21 11 6 3 2 2 1 1 1 1 4 1 3 7 7 11 3 9 8 9 6 9 11 12 14 5 5 4 4 8 10 9 6 18 14 4 11 11 9 10 8 8 9 6 4 8 12 13 14 12 6 3 6 6 4 5 9 7 7 7 8 5 14 10 7 17 18 17 16 15 13 15 14 14 11 11 13 11
26 26 26 27 27 27 26 25 23 19 11 5 1 2 2 2 1 1 1 4 2 1 6 7 12 2 13 12 13 11 14 16 16 8 10 8 4 6 11 12 12 5 1 11 14 13 15 14 14 13 11 10 10 6 8 14 11 7 9 11 10 11 10 7 4 6 7 5 9 7 15 9 4 12 15 20 21 19 18 15 15 13 14 14 15 16 17
25 25 26 26 26 26 26 25 24 19 12 5 3 3 4 3 2 0 1 3 4 7 8 4 2 1 4 11 9 6 10 9 4 6 4 9 5 3 10 13 17 7 14 17 17 14 11 8 9 9 8 8 8 9 7 5 8 4 9 8 10 9 11 7 3 5 3 4 9 11 2 5 1 1 5 4 14 17 16 18 20 20 18 18 18 19 18
24 25 25 25 25 26 26 25 26 22 15 7 5 4 3 4 2 0 0 2 2 1 0 5 1 4 7 10 9 6 9 6 4 4 3 1 10 11 4 1 3 12 12 15 12 14 6 2 6 4 1 3 2 3 0 4 5 2 7 8 7 12 6 7 5 5 10 8 11 9 5 6 6 3 5 9 11 13 16 13 16 19 18 16 16 18 20
23 24 24 24 25 25 25 26 25 25 20 10 1 3 6 6 2 1 1 1 4 2 1 6 6 8 9 6 10 9 9 6 7 1 2 2 3 2 1 2 3 12 13 13 4 2 4 4 5 6 1 7 6 7 3 3 0 2 2 2 3 9 11 7 9 7 7 12 10 8 5 9 7 12 9 7 5 9 10 11 11 9 13 15 18 20 22
22 23 24 24 24 24 25 25 26 26 25 15 2 2 4 6 3 3 1 1 5 6 4 1 2 1 8 6 11 15 10 9 7 4 2 2 1 2 1 1 2 4 1 4 2 5 5 8 8 9 7 10 3 7 3 5 2 1 2 0 3 2 5 6 12 7 9 11 12 8 8 8 12 15 11 5 3 5 4 4 12 11 13 15 18 20 20
21 22 23 24 23 24 24 25 26 26 25 21 6 4 5 8 5 2 2 3 2 1 3 2 2 2 2 2 2 2 7 9 11 7 4 4 3 0 1 2 2 3 2 6 3 5 4 2 2 1 3 2 7 7 6 5 7 4 3 3 5 5 6 9 10 11 10 10 11 11 5 7 11 10 5 8 7 9 7 11 8 10 22 15 12 14 15
20 20 22 23 23 23 24 24 26 26 25 25 7 3 5 7 6 3 2 2 4 2 2 2 3 4 6 2 5 2 5 4 3 4 3 2 4 1 3 3 2 3 3 6 4 8 7 5 12 9 9 2 1 7 9 9 9 10 11 11 7 8 5 10 11 12 13 14 7 4 5 6 7 6 6 8 10 11 9 15 12 3 3 10 15 18 17
19 19 20 22 23 23 24 24 25 26 25 25 9 2 3 8 9 5 2 2 2 3 3 1 2 3 2 0 1 1 1 4 8 7 5 4 3 2 3 1 3 6 1 3 2 7 10 5 3 2 5 1 2 9 6 10 9 7 12 8 3 5 4 5 9 12 13 11 10 6 7 7 5 3 11 10 8 9 15 10 3 6 2 1 4 4 4
19 19 19 20 21 22 23 23 25 25 25 26 12 2 4 6 6 6 2 3 4 5 3 5 4 4 4 2 1 4 3 2 1 5 9 10 4 11 5 3 2 3 2 1 6 1 5 9 7 2 2 5 5 3 2 2 1 12 9 16 10 10 9 9 11 5 3 2 5 4 8 10 15 15 4 6 8 11 4 5 4 3 7 7 6 5 5
18 18 18 19 20 21 22 22 24 24 25 25 14 4 5 8 9 8 5 2 4 7 4 4 3 7 5 7 7 5 3 3 4 7 3 2 8 11 9 9 11 7 8 9 11 7 4 7 4 3 1 5 4 2 7 6 3 8 2 12 8 15 9 6 6 9 8 12 9 9 9 4 16 15 11 11 12 3 3 5 5 1 2 5 6 3 4
17 18 18 17 18 20 20 21 22 23 24 24 18 5 6 8 7 7 7 3 5 5 3 1 1 2 3 3 3 4 2 2 3 4 2 7 2 2 1 3 6 5 3 2 4 3 2 2 2 3 4 2 0 9 4 8 5 5 4 1 7 11 12 11 14 12 8 9 10 11 2 13 15 15 9 10 5 5 4 7 6 7 3 1 4 4 2
16 17 17 17 17 18 19 20 21 21 22 24 15 6 4 9 10 10 5 8 4 4 2 1 2 2 2 2 4 1 4 3 4 3 4 1 3 2 0 4 5 0 1 2 4 5 6 5 3 3 3 1 9 5 3 1 2 5 8 7 2 2 5 5 1 7 9 8 5 4 1 4 7 3 3 5 5 4 4 8 6 3 4 3 5 3 4
16 16 16 17 16 17 17 18 20 20 21 21 13 5 6 5 8 8 4 4 2 3 1 2 1 3 4 6 7 8 5 4 3 6 4 4 5 3 1 3 1 2 1 2 1 2 4 2 3 1 7 5 6 6 9 5 6 6 5 2 3 4 3 3 5 4 9 8 13 16 16 8 6 9 3 3 3 4 4 6 5 5 4 4 3 3 2
15 15 15 15 16 16 16 17 18 18 19 20 12 3 2 3 9 8 3 2 3 1 1 2 3 2 3 4 4 4 4 5 7 5 2 2 2 2 4 2 1 1 5 4 2 3 2 4 1 1 6 2 4 6 2 9 4 7 7 6 5 3 8 10 7 8 12 11 10 8 8 9 7 4 6 4 4 4 3 2 3 5 4 3 3 1 2
15 14 14 14 14 15 16 15 16 17 18 18 11 7 5 4 8 6 1 2 1 0 2 1 1 2 3 3 3 4 9 7 6 6 7 4 2 2 8 4 3 3 3 1 0 2 3 3 2 0 5 3 1 2 2 2 2 4 5 5 5 3 13 7 13 9 10 8 2 4 4 5 5 2 2 1 5 5 3 4 4 4 5 3 2 3 2
16 15 14 14 13 13 14 15 14 15 17 14 5 5 4 4 6 8 5 3 2 0 1 1 1 3 3 3 4 5 5 6 6 6 7 8 7 5 5 6 6 3 2 3 3 3 3 2 2 2 1 1 3 1 2 2 2 5 4 3 3 6 10 6 6 8 8 10 7 11 3 3 5 6 5 3 2 5 8 7 5 4 4 2 1 2 4
16 16 15 14 13 12 13 14 14 14 15 12 4 2 3 5 5 4 3 2 3 1 1 0 1 0 1 1 3 4 6 5 4 5 6 6 7 6 6 5 4 3 2 3 2 3 1 3 2 1 1 1 3 1 0 2 2 1 1 7 8 11 12 10 10 12 8 6 5 2 5 7 4 6 5 5 4 5 6 5 4 3 2 3 3 4 4
15 16 16 15 13 12 11 11 12 13 14 8 3 3 1 0 2 6 7 2 1 2 0 1 1 1 0 0 3 4 6 6 6 5 5 6 7 7 7 6 4 2 3 4 3 2 2 2 2 3 2 3 3 2 3 2 3 9 9 8 7 4 3 8 1 9 5 3 5 4 3 5 5 4 2 3 3 3 1 2 2 2 2 4 5 4 6
15 15 15 15 15 13 11 10 10 11 11 5 3 4 3 1 3 9 10 5 1 0 1 1 0 0 2 2 3 3 4 5 5 6 8 6 6 5 4 3 3 3 3 2 2 3 1 2 1 3 3 4 2 2 3 1 1 6 1 6 10 5 2 2 4 1 3 4 4 4 4 1 2 3 4 1 2 3 3 4 6 2 2 4 5 5 2
14 13 14 15 16 15 12 10 7 8 7 3 3 3 3 3 3 7 12 8 4 1 1 1 1 1 1 1 2 4 4 3 4 5 5 4 3 3 2 2 2 2 2 2 2 1 2 1 1 1 1 1 2 3 4 3 2 5 7 10 5 7 6 4 3 3 5 3 3 3 1 1 1 2 3 3 4 2 2 5 3 1 3 3 5 6 6
13 12 13 15 15 16 13 10 6 5 5 3 2 1 1 1 3 7 9 6 2 3 3 2 2 2 1 1 1 1 2 1 1 1 1 1 2 3 5 4 1 3 1 2 0 2 0 1 2 2 2 1 5 2 2 2 4 8 5 7 6 6 5 5 3 2 4 3 1 3 4 3 6 4 1 8 4 4 2 1 2 4 6 6 6 6 5
12 13 15 15 15 13 12 7 5 4 1 0 2 1 3 6 9 7 4 4 4 2 1 2 0 1 1 3 3 1 2 1 1 2 1 2 1 2 2 2 2 1 2 2 1 2 1 1 1 2 1 2 3 2 2 5 11 2 5 2 4 3 3 3 1 1 2 2 1 4 7 3 4 3 2 4 2 4 4 6 5 4 6 7 9 7 5
12 14 15 15 13 10 8 7 8 4 7 4 1 3 5 11 8 9 4 4 3 1 2 2 2 2 3 3 2 1 4 0 0 1 0 2 2 1 0 2 2 1 2 1 1 3 1 1 1 1 2 1 1 3 3 10 15 5 5 4 3 5 2 1 3 4 2 2 1 2 4 4 0 4 5 2 0 2 3 3 3 4 7 9 10 8 6
12 13 14 12 10 6 9 8 6 5 1 0 1 4 5 9 4 5 4 1 2 2 3 2 1 2 3 3 2 3 0 2 1 1 0 1 3 0 0 1 0 1 2 4 2 1 1 2 2 2 4 1 3 4 6 14 5 9 6 6 4 4 1 4 2 2 1 2 3 3 4 4 4 5 5 3 2 2 5 5 5 7 9 10 10 9 7
11 12 11 9 7 5 2 4 4 2 3 1 1 5 9 8 7 4 4 4 2 2 2 1 1 1 0 1 1 2 1 1 0 1 0 0 1 1 1 1 0 2 2 2 2 1 2 2 4 1 2 4 8 7 14 4 9 8 7 6 7 8 3 3 2 1 1 2 2 2 2 2 5 8 4 3 4 4 5 6 3 2 8 11 9 6 6
8 8 7 7 5 3 3 1 2 2 1 4 6 8 6 2 1 3 5 2 2 3 1 2 1 3 3 3 1 6 1 1 1 2 2 1 1 1 1 0 2 1 4 2 3 3 2 4 3 2 3 6 10 12 11 1 3 4 4 1 2 3 2 2 3 3 5 5 4 5 4 4 6 6 4 1 2 4 6 5 4 3 6 10 9 7 7
6 10 5 4 4 4 2 2 2 5 10 8 5 1 5 5 0 2 3 4 3 2 2 2 1 1 2 2 2 3 3 2 2 0 1 2 1 2 1 1 5 2 2 3 3 4 3 2 3 6 8 9 11 9 5 5 3 2 3 5 3 3 3 3 1 2 4 10 12 5 3 4 7 5 2 2 1 3 5 6 7 6 8 10 11 9 10
7 2 4 3 3 1 1 1 5 12 5 1 1 1 1 0 1 1 0 0 1 1 0 2 3 1 2 1 5 2 2 0 3 1 1 2 2 3 2 1 2 4 3 0 3 7 1 4 4 4 7 7 10 13 0 10 6 4 3 4 3 3 3 3 3 1 4 6 2 1 2 6 7 10 5 8 4 2 4 5 6 6 5 8 9 9 10
3 4 2 2 1 1 3 5 8 4 1 0 1 0 0 1 1 1 0 1 2 1 1 3 1 2 5 7 5 4 0 2 2 2 3 3 0 1 1 2 4 4 3 3 3 6 3 4 5 4 8 8 13 1 7 2 5 3 4 4 4 4 4 3 3 2 2 2 2 2 2 4 5 6 7 7 8 7 4 5 6 6 7 9 10 10 11
1 1 1 0 2 1 2 3 2 2 2 1 1 0 1 1 0 0 0 0 1 3 1 1 2 1 1 1 0 5 2 3 0 1 1 1 1 5 3 1 2 4 3 2 2 5 1 2 4 7 8 8 2 2 4 6 5 5 3 3 3 2 2 2 3 3 3 3 2 2 3 4 5 6 6 8 8 9 7 7 10 9 10 10 11 11 10
3 2 1 1 0 1 2 1 2 1 1 0 1 1 1 0 1 2 1 1 2 1 1 2 1 1 2 3 4 1 3 1 1 1 1 2 2 4 3 1 2 3 2 2 3 2 1 4 5 7 5 5 4 1 4 5 3 2 3 2 2 1 2 2 3 3 2 2 3 3 4 4 5 5 6 7 8 8 9 9 11 12 12 12 11 11 11
5 4 3 1 0 1 2 0 1 1 1 0 1 1 1 0 2 2 2 1 1 1 2 2 2 1 1 2 1 1 1 1 1 1 2 2 1 2 0 1 1 0 4 2 2 2 2 2 3 5 3 1 4 4 4 4 3 3 1 2 1 0 1 3 3 4 3 2 3 4 4 5 5 5 5 7 9 11 10 9 11 12 11 11 11 11 11
3 2 1 2 1 1 1 0 0 2 0 0 1 2 2 1 2 1 0 3 2 2 2 3 2 3 3 2 1 1 1 1 3 1 0 1 2 1 2 2 2 4 3 3 0 3 6 3 4 3 1 3 2 3 3 3 3 3 1 1 1 0 2 2 3 4 6 4 3 4 4 5 7 6 6 7 8 11 12 10 10 11 12 12 12 12 11
2 3 3 1 0 2 1 2 1 2 3 4 4 3 4 4 5 5 5 1 2 2 0 0 1 1 1 1 1 1 1 2 2 2 3 3 2 3 1 3 2 0 3 4 3 2 2 6 4 3 5 3 5 4 3 3 3 2 2 1 1 3 1 1 3 3 5 5 6 6 5 6 6 7 7 8 8 8 9 11 10 10 10 10 11 11 11
1 2 1 2 2 1 1 1 0 1 3 2 4 6 5 5 4 2 1 1 2 1 1 2 1 1 1 0 1 1 1 1 0 2 1 1 1 4 4 0 3 1 2 4 7 10 9 7 5 4 5 3 7 6 5 4 3 2 4 2 3 3 3 4 3 5 5 5 5 5 6 6 7 7 8 8 9 9 9 9 9 9 11 11 11 12 10
2 2 3 2 2 2 1 2 5 5 3 3 3 4 3 1 3 1 1 0 1 1 1 1 0 0 2 1 0 0 1 1 1 3 1 0 2 2 2 2 3 3 3 5 5 4 3 4 5 5 2 4 3 4 4 4 4 5 3 3 2 3 3 3 4 5 7 5 6 7 7 7 8 8 8 9 9 9 10 9 10 10 10 12 12 10 9
1 0 2 1 4 2 3 5 0 2 1 2 1 2 2 0 1 2 2 3 1 1 4 3 2 1 1 1 1 1 0 1 0 3 2 2 2 1 1 1 2 2 2 3 6 3 3 4 3 2 4 4 5 3 2 3 4 6 6 3 5 4 4 4 5 7 5 6 7 7 7 7 7 8 7 9 10 10 9 9 9 9 9 10 9 7 7
3 3 2 3 2 2 2 1 1 3 2 1 1 1 1 1 5 4 2 1 2 3 2 1 1 2 1 1 0 1 2 2 2 3 2 1 3 4 2 4 4 5 3 4 5 4 4 1 1 1 2 2 3 3 2 2 3 7 8 7 7 7 6 6 7 7 7 5 6 7 8 8 7 6 7 7 8 10 7 7 8 9 10 10 7 6 7
1 1 1 1 2 2 1 0 2 5 2 1 1 1 1 3 5 6 3 3 2 1 1 2 2 1 0 1 0 1 1 1 2 1 2 4 3 2 1 6 5 3 4 3 3 2 1 1 1 1 4 4 4 3 2 2 3 2 4 5 5 5 7 7 8 8 8 8 8 9 10 8 6 5 6 8 7 7 7 8 9 9 7 7 6 7 7
1 0 3 2 6 6 6 3 6 4 2 3 3 5 5 6 4 3 2 4 4 3 2 2 1 2 1 1 1 1 3 2 2 3 3 3 2 2 4 7 6 7 7 1 1 1 2 3 4 3 4 5 4 4 4 3 5 6 6 6 6 5 6 6 7 7 8 9 9 9 8 8 7 5 5 5 7 7 7 5 3 5 7 6 5 6 6
2 1 4 2 1 1 3 1 1 3 5 2 4 2 4 3 3 2 1 4 4 5 4 2 2 2 1 4 4 2 1 1 3 1 0 4 3 3 6 9 8 3 2 1 1 2 3 2 4 4 4 3 3 4 4 5 4 4 4 5 5 5 6 7 7 7 8 8 8 8 8 7 7 5 5 6 6 5 5 4 3 6 7 6 5 7 8
Wind_Direction
16 20 16 15 11 14 14 226 174 171 148 148 161 132 145 172 162 59 288 158 158 156 191 175 171 199 237 83 82 135 180 168 186 159 177 151 125 113 166 190 146 203 159 164 152 164 192 178 190 183 198 195 190 161 176 147 161 159 165 166 172 81 167 172 170 62 43 334 2 22 7 141 204 225 230 187 202 194 206 216 211 204 153 211 215 241 271
20 23 19 15 12 13 16 9 165 166 165 170 144 150 131 97 91 113 348 175 155 167 193 182 186 165 52 226 125 87 226 179 174 184 165 154 166 163 156 120 269 164 189 160 174 171 161 207 195 190 185 183 21 194 170 163 171 166 178 177 168 195 190 178 162 171 158 166 308 298 336 331 228 199 206 213 200 209 218 60 60 217 191 195 186 241 255
16 23 25 15 16 11 16 20 165 156 350 342 198 138 135 101 57 33 36 291 171 185 194 190 178 177 149 146 151 144 95 293 200 167 173 130 145 152 183 182 154 131 168 170 171 176 183 145 205 57 188 188 42 214 178 176 177 179 163 178 155 215 156 179 195 186 178 191 194 188 190 202 189 221 205 200 203 200 186 222 190 235 181 194 206 229 235
16 19 26 21 14 12 11 22 43 53 39 343 106 165 133 169 158 184 74 315 181 219 13 170 174 151 156 148 179 143 134 226 323 171 98 44 106 53 113 5 123 119 139 151 155 177 281 177 175 175 176 161 216 207 190 189 181 177 161 155 163 171 190 205 201 199 209 203 152 11 72 69 180 199 199 203 208 208 208 222 219 220 164 217 211 222 242
14 18 24 24 15 12 13 13 20 27 25 47 117 34 47 28 167 147 164 41 209 178 171 142 176 178 155 166 156 169 164 147 198 301 168 189 129 113 115 162 146 186 155 161 170 165 78 27 162 188 160 76 141 17 208 192 184 129 139 159 136 128 197 215 212 220 235 224 154 196 145 176 186 164 192 175 198 207 216 216 229 138 199 232 219 223 237
13 15 20 25 19 14 12 12 13 17 9 343 76 56 15 184 166 66 81 164 163 144 210 167 175 126 166 165 161 169 161 173 156 46 344 104 228 138 12 191 187 166 171 161 168 173 155 157 183 168 152 118 130 116 262 188 172 157 165 173 174 171 196 194 196 220 226 238 227 143 145 155 187 193 175 182 189 196 225 239 238 196 210 221 126 77 229
12 14 17 23 24 17 12 10 13 10 5 350 118 115 321 39 102 92 140 136 281 197 173 172 168 150 161 126 175 174 165 174 175 178 147 148 192 225 159 186 182 186 169 159 160 164 143 210 203 178 177 174 155 148 124 269 210 179 162 181 240 170 225 195 192 213 220 223 230 172 188 189 191 208 205 190 193 202 202 213 221 216 229 256 263 262 263
11 11 15 20 25 21 17 10 10 9 357 347 73 36 140 171 162 156 94 62 85 69 136 168 158 169 180 153 200 166 183 170 154 259 169 159 188 192 171 178 186 181 175 175 175 179 188 184 186 195 168 166 178 172 181 151 186 197 178 165 249 195 206 197 194 209 224 221 220 211 221 217 215 208 207 191 187 197 202 207 210 211 225 231 240 257 274
10 11 14 17 20 25 21 17 10 6 359 51 67 56 22 334 306 132 142 119 121 116 152 164 174 174 191 195 174 177 184 183 172 172 247 175 168 183 182 175 178 185 184 190 198 191 195 186 179 160 169 183 187 164 206 165 152 173 165 180 126 191 319 113 156 201 229 213 201 181 217 233 239 223 137 148 180 206 205 215 210 206 214 217 220 225 241
9 11 13 16 19 22 24 23 18 9 3 102 34 68 313 299 201 196 110 105 170 149 169 172 164 196 181 182 173 180 190 183 166 157 304 331 309 186 183 176 158 178 181 200 200 194 185 122 133 156 129 48 85 39 148 151 150 150 138 115 176 185 171 149 180 208 229 210 187 170 152 47 247 228 198 180 198 202 208 221 215 212 198 212 208 225 224
9 9 11 14 15 19 23 23 24 20 19 40 35 54 351 318 151 269 48 103 322 186 160 183 188 196 162 183 166 216 179 173 184 165 182 210 225 134 143 160 171 168 193 193 128 97 98 100 72 50 67 94 76 89 134 153 159 162 158 156 169 170 188 190 161 214 223 217 137 150 159 229 232 139 199 203 208 203 214 214 217 216 196 222 221 235 240
8 9 11 12 14 15 18 21 22 30 29 358 24 78 322 271 295 333 162 149 155 183 190 194 193 145 178 181 173 173 176 182 194 207 175 182 141 137 154 172 162 198 180 100 110 106 100 81 73 64 51 56 69 77 137 157 173 187 174 169 172 184 188 199 177 206 220 126 126 186 223 223 91 180 200 202 217 222 224 234 229 219 210 223 233 236 238
7 9 10 11 12 13 15 16 19 23 32 7 29 67 339 288 270 295 155 126 152 185 193 216 345 39 162 167 176 187 189 182 113 68 73 155 129 160 176 173 190 171 142 133 129 115 98 95 79 99 83 84 57 70 58 113 174 190 198 200 170 174 186 183 198 199 194 173 180 227 247 139 136 145 34 204 214 219 226 237 237 232 221 210 225 237 243
7 8 9 10 11 11 12 14 14 17 23 28 35 45 7 332 252 327 299 124 138 43 333 66 62 135 157 171 153 109 101 96 59 57 109 357 171 168 158 120 151 131 166 132 116 113 93 70 110 113 54 65 86 128 114 68 35 337 211 208 204 176 160 185 206 192 213 197 206 219 5 322 273 226 195 167 181 194 204 228 232 230 231 226 228 232 238
7 8 9 9 10 9 10 10 10 11 13 24 316 25 27 15 351 296 248 20 139 151 227 194 180 178 158 158 145 148 158 154 146 115 15 351 53 338 339 329 218 159 163 141 141 58 140 129 116 131 174 151 166 180 72 187 319 59 351 281 270 185 184 181 197 206 200 218 229 225 204 235 218 219 211 197 198 189 197 217 249 222 222 221 224 228 233
7 7 8 7 9 9 9 9 8 8 10 8 23 334 39 9 314 258 267 165 132 171 204 327 327 156 157 171 174 166 163 173 169 111 122 49 341 54 19 337 357 343 16 72 126 124 153 154 169 163 186 178 153 109 221 142 183 321 36 16 155 252 197 184 199 201 195 216 231 218 210 225 217 226 212 148 149 166 144 197 245 235 237 212 216 223 229
7 7 7 6 8 9 9 9 8 8 7 8 348 333 18 6 7 332 334 42 40 82 62 300 215 266 84 88 2 209 184 172 153 156 160 190 162 159 35 10 332 66 338 137 164 125 139 90 107 107 20 120 145 181 101 160 141 131 109 102 178 167 182 170 202 209 205 201 210 225 202 231 232 227 184 159 147 143 118 237 239 209 230 214 207 220 226
6 6 7 7 6 7 8 9 8 8 7 6 1 349 360 352 3 303 332 91 110 108 2 27 201 183 183 158 177 148 88 90 42 47 104 112 125 154 147 122 149 286 292 170 171 160 168 158 175 179 176 212 210 121 192 158 172 176 171 174 170 177 189 190 194 201 210 203 226 253 260 256 237 159 133 141 153 156 204 229 234 219 102 174 201 213 221
5 6 6 7 6 7 8 8 7 8 8 7 357 236 14 3 348 349 118 50 57 106 358 327 304 333 9 353 317 151 235 187 156 124 128 133 239 184 126 192 125 171 119 168 192 175 168 186 15 166 147 160 250 186 131 166 177 158 147 130 150 181 157 199 206 210 210 208 221 232 266 262 189 138 152 156 135 203 216 224 52 120 127 4 227 192 103
4 3 6 7 7 7 8 7 6 8 10 9 9 14 308 355 1 10 3 105 71 94 45 20 340 33 359 16 156 156 140 88 256 157 166 178 129 126 100 140 290 71 72 103 188 204 176 184 173 168 144 159 203 130 77 218 21 161 168 186 180 170 176 187 188 176 64 152 190 198 244 237 171 109 66 242 214 225 183 100 34 49 131 105 74 110 122
2 2 4 6 6 7 8 8 6 8 10 11 9 343 348 1 359 356 360 44 117 104 63 355 23 41 32 52 43 23 354 194 162 186 188 69 168 151 168 194 181 181 179 176 188 192 189 180 163 175 191 153 170 107 189 156 221 286 178 183 188 171 191 166 202 174 181 182 187 203 212 78 123 151 192 191 217 37 98 128 130 282 114 118 122 143 155
3 2 2 3 5 5 6 8 7 7 10 11 8 355 21 339 350 349 328 30 72 70 85 167 308 45 55 46 43 6 4 350 313 320 133 141 322 288 9 52 146 167 172 112 65 33 350 123 65 148 163 173 314 196 159 148 186 175 357 82 179 196 195 179 192 177 193 194 206 221 115 158 183 195 203 176 126 65 91 105 110 134 116 104 114 123 142
4 2 1 1 3 4 4 7 7 7 10 13 15 24 11 338 346 334 309 73 70 76 35 42 286 231 203 224 217 40 312 242 304 291 282 117 135 353 169 168 168 11 50 291 205 183 172 143 177 149 51 238 169 149 360 317 127 135 172 223 341 292 208 54 112 208 212 260 253 254 347 236 212 46 83 106 115 89 63 98 101 73 133 142 120 155 131
1 3 2 1 359 360 2 4 7 7 10 14 19 353 358 359 348 346 358 60 77 114 70 356 88 21 354 340 334 335 347 12 333 290 264 286 171 163 340 274 57 92 302 220 267 148 156 104 162 163 185 189 137 168 167 205 206 178 166 158 235 219 152 156 199 142 172 235 223 229 228 200 208 207 105 34 92 134 131 114 107 144 123 122 107 143 143
358 360 360 2 359 357 359 3 6 6 9 15 10 3 257 359 1 355 3 16 1 79 115 334 33 313 312 289 269 285 314 329 301 300 329 217 275 189 178 106 167 226 170 149 172 105 69 128 163 152 188 212 195 194 201 182 214 167 168 188 153 236 186 202 188 176 191 215 219 231 226 205 195 191 172 165 145 142 196 106 90 101 115 105 123 141 133
359 357 358 359 0 356 355 359 5 6 5 19 34 21 29 2 328 330 139 71 134 77 111 94 3 352 311 337 20 317 303 320 320 344 15 351 347 118 129 144 94 64 90 48 292 102 116 71 104 99 168 196 271 223 167 274 76 166 209 180 174 97 131 199 183 203 218 250 128 169 115 154 181 195 331 150 154 166 121 95 104 125 124 128 160 228 152
1 358 355 355 357 358 354 352 360 1 2 14 43 45 50 25 16 34 29 330 317 212 46 118 296 313 359 46 335 325 336 333 340 27 29 23 40 44 74 94 99 49 52 62 37 99 50 98 112 157 162 126 118 117 93 108 146 140 196 187 128 137 197 167 165 208 217 213 202 127 192 201 146 185 187 186 104 106 124 134 110 96 97 129 177 212 235
359 358 357 355 353 355 355 350 353 359 1 5 57 82 58 52 18 48 62 4 11 20 347 39 111 325 29 56 349 324 335 342 329 40 45 34 37 42 45 43 57 68 27 52 40 24 22 124 149 88 58 245 105 114 111 29 60 26 271 204 188 194 188 163 187 190 210 103 72 27 84 73 68 102 95 81 72 69 54 62 96 141 161 184 206 252 235
355 357 357 357 353 351 351 354 358 358 2 360 7 64 6 332 309 29 36 79 114 102 123 235 250 2 221 16 25 0 355 1 12 29 53 51 50 47 48 44 55 76 75 54 69 73 81 28 48 119 156 252 85 151 122 173 190 215 215 165 176 238 87 192 158 76 56 91 94 85 92 114 143 145 136 85 129 65 349 199 182 118 174 225 246 249 281
354 357 359 1 358 352 350 347 3 359 3 8 26 41 34 316 358 22 2 33 46 132 35 32 61 210 338 14 360 353 329 1 20 38 40 39 33 32 9 41 51 36 49 104 144 113 119 90 330 323 309 311 126 152 118 202 214 249 107 128 198 155 101 64 55 110 133 151 124 82 107 79 4 313 317 313 175 195 266 10 56 67 283 277 295 300 241
353 359 0 2 2 357 348 344 5 18 19 37 66 46 33 10 322 11 344 356 349 99 111 106 244 303 24 106 93 8 354 9 53 52 40 31 35 16 334 2 36 347 73 14 57 75 92 89 127 221 33 338 98 117 170 153 218 281 210 175 173 179 184 167 179 107 112 123 112 99 81 216 126 351 274 222 248 270 45 79 95 42 295 269 261 269 279
352 357 357 354 354 353 349 338 37 66 55 46 70 120 182 214 288 324 342 343 357 49 28 9 341 10 301 2 257 289 309 311 40 52 27 345 18 2 28 25 34 354 39 103 264 52 28 217 93 196 128 189 89 102 86 154 221 243 63 144 169 170 144 150 155 129 118 152 29 270 228 166 151 195 293 74 42 60 70 152 169 278 278 268 277 277 279
350 357 353 348 345 347 349 358 58 64 11 30 342 10 299 300 304 343 355 338 56 68 139 80 151 315 341 263 325 319 192 314 21 9 42 7 5 19 15 357 350 13 298 85 338 147 353 70 210 108 187 341 112 159 189 218 227 90 90 105 110 108 83 60 94 31 108 131 166 245 275 32 87 299 353 100 45 342 318 313 311 303 293 295 292 289 283
347 347 349 346 344 351 15 44 32 42 39 32 41 354 337 334 327 349 20 77 88 70 57 78 15 9 270 336 49 335 34 27 8 10 56 30 318 18 62 43 283 138 317 126 229 70 292 115 136 181 31 25 144 86 245 241 237 152 98 97 106 82 116 92 270 254 99 105 227 286 19 53 360 294 308 349 49 281 295 281 298 294 291 286 285 281 293
339 343 343 346 344 10 50 52 40 45 100 244 243 253 288 316 39 27 25 97 62 345 37 359 107 28 333 352 37 286 103 64 355 334 266 16 17 49 313 80 295 137 253 83 33 175 135 223 185 110 191 148 81 226 236 244 228 121 180 186 134 132 109 232 260 276 22 54 38 26 36 24 357 297 285 312 360 272 280 267 262 280 285 277 278 292 302
343 341 340 341 352 11 37 54 45 24 25 337 252 317 360 43 44 38 57 70 105 145 91 247 75 214 123 319 302 279 346 30 127 29 20 286 32 47 65 190 232 226 48 86 205 132 179 205 105 253 180 118 215 210 233 197 109 156 181 167 180 177 178 200 159 99 354 10 351 324 312 303 276 274 274 277 283 283 281 293 300 285 286 291 301 339 347
3 357 360 32 18 46 30 6 11 73 159 244 274 293 320 19 341 27 8 9 20 78 126 144 116 217 159 222 312 275 41 316 74 28 353 58 197 23 39 49 216 143 52 263 205 177 213 56 109 213 194 202 230 233 247 140 138 145 171 146 100 69 97 74 63 32 338 308 301 291 286 279 272 271 291 315 71 30 2 326 358 8 297 293 298 303 293
12 37 46 17 46 41 11 350 306 308 309 311 325 10 1 31 348 349 11 28 301 10 359 67 226 229 26 87 237 257 71 279 73 325 305 217 50 306 247 141 244 117 254 228 229 140 99 109 206 218 238 234 252 260 249 77 99 74 73 92 98 82 76 83 65 31 323 304 291 296 337 315 289 294 338 314 111 290 287 292 295 290 285 283 288 301 309
55 55 46 38 85 114 180 307 314 317 321 222 52 63 332 47 63 15 13 290 10 342 277 158 251 116 145 204 266 343 172 152 33 349 33 257 125 275 103 315 252 101 262 128 263 145 217 199 219 229 253 244 252 255 233 99 73 57 64 59 69 73 74 71 44 177 235 252 7 82 218 279 296 298 323 304 289 245 274 284 287 286 292 296 303 312 306
25 38 34 33 60 240 278 280 318 329 263 13 335 96 335 320 73 274 360 40 332 277 175 219 229 178 207 218 234 282 100 98 231 268 199 320 324 213 264 80 276 101 235 185 229 90 181 192 204 215 254 241 243 295 79 99 100 72 54 47 38 43 42 57 68 39 34 343 9 298 308 283 290 288 305 306 308 305 314 310 294 297 302 294 297 299 295
59 100 60 71 245 264 278 311 347 43 55 35 4 327 69 342 331 123 321 180 223 242 309 237 29 341 330 31 104 232 322 63 356 77 98 205 261 72 30 182 258 76 256 196 243 93 199 209 204 218 238 253 263 93 90 67 79 86 72 60 48 25 20 33 33 25 18 352 345 324 322 313 308 302 303 304 303 301 306 308 302 301 300 298 299 293 295
211 185 191 158 113 290 343 14 52 46 1 73 121 295 300 278 20 360 160 198 249 266 298 166 233 203 252 192 207 217 280 163 85 40 98 296 277 137 227 285 13 126 226 233 69 17 176 202 218 240 251 260 62 46 77 105 77 100 95 109 36 18 26 355 337 351 22 329 309 304 301 306 299 293 296 298 291 294 300 302 295 295 293 291 292 290 289
107 110 97 46 4 355 26 65 287 105 158 232 56 318 357 51 222 173 259 281 15 143 263 12 291 358 344 61 317 200 217 31 248 275 90 222 281 58 111 272 206 20 232 7 71 222 182 224 244 243 259 90 89 76 72 87 112 106 114 99 322 339 340 328 311 309 330 330 297 297 292 288 278 273 275 279 285 286 280 276 279 285 288 289 288 287 287
55 36 45 347 53 290 72 294 257 86 172 91 150 201 179 316 278 116 304 253 196 248 226 170 180 155 213 340 149 103 15 267 194 89 308 265 65 230 225 239 221 235 65 28 319 243 242 238 221 234 233 109 220 151 135 130 136 104 113 164 195 353 284 286 308 323 313 314 309 294 288 283 284 286 282 276 276 282 286 284 279 279 281 283 284 285 287
78 4 30 18 34 279 65 255 350 124 206 221 188 213 167 191 221 194 201 240 143 226 30 37 108 117 182 267 44 300 296 278 347 133 234 149 146 227 188 247 230 323 243 255 250 283 276 254 260 271 294 263 168 168 158 149 154 154 167 127 299 279 261 247 281 281 288 292 296 297 292 283 285 284 284 279 275 269 276 280 284 285 283 281 279 282 284
69 172 94 81 302 290 112 225 60 232 270 167 205 189 189 226 164 225 261 45 130 149 189 189 120 121 127 238 170 227 11 46 83 223 218 69 194 228 201 259 65 91 224 209 232 238 239 250 251 252 238 196 146 161 157 196 174 147 124 207 234 171 216 252 250 256 261 270 276 280 276 282 277 280 280 279 279 278 273 274 279 280 281 282 282 286 287
89 22 91 106 120 273 66 198 218 205 184 213 228 203 183 195 208 233 247 237 166 207 106 260 201 176 154 215 157 340 85 51 183 272 56 323 208 257 34 107 232 199 223 237 232 233 234 242 238 238 201 178 201 214 200 208 190 168 191 211 192 226 241 237 253 256 258 267 271 271 272 272 272 270 276 282 278 271 272 274 275 273 276 279 285 289 292
137 224 105 198 237 174 194 239 212 304 230 189 202 210 261 299 347 282 219 184 275 152 155 121 85 45 41 285 51 221 93 196 319 279 177 246 17 27 267 215 239 232 188 196 238 186 232 230 232 197 197 184 172 169 194 186 189 191 205 224 241 247 240 236 242 249 255 251 252 254 258 261 261 264 266 267 276 278 275 276 276 279 279 279 276 276 282
137 139 190 210 202 173 225 292 28 281 279 328 272 236 234 174 227 244 234 154 156 189 192 126 190 123 175 91 133 195 229 189 188 238 82 39 188 238 219 247 218 242 242 203 229 216 226 229 220 189 200 179 201 181 212 194 189 188 201 208 227 236 250 254 255 260 262 259 259 265 267 265 265 268 269 273 274 278 274 270 274 273 269 264 262 270 275
117 309 35 88 341 291 226 331 44 295 284 334 185 227 179 234 257 262 184 158 210 117 213 226 206 111 206 122 201 185 235 210 200 263 213 221 211 239 235 255 237 227 258 240 233 254 242 220 129 246 230 218 207 178 198 203 186 204 208 213 233 242 247 254 271 271 267 268 274 270 270 275 275 265 268 272 270 274 281 273 266 266 279 276 273 272 272
324 141 243 167 199 226 137 200 195 216 264 258 201 211 176 211 199 239 211 144 134 86 55 151 172 110 157 121 145 214 237 152 113 213 198 215 171 158 204 236 237 222 246 251 225 224 204 188 192 214 218 218 224 221 210 212 217 229 228 227 240 241 259 258 262 274 276 271 267 273 272 266 259 256 266 276 281 278 275 272 276 295 296 293 280 281 293
105 222 244 291 26 161 166 78 47 217 231 201 184 247 158 224 241 244 220 133 159 161 187 172 124 157 150 206 215 204 20 62 219 123 230 250 167 170 212 221 248 263 248 214 250 229 226 237 213 217 211 208 220 219 214 205 214 243 254 261 261 266 273 277 271 268 269 274 272 265 266 270 265 269 296 303 293 298 307 305 312 319 314 308 307 315 313